Retour au catalogue

STARLINK-30499

ActifCommunicationsVLEO
NORAD 57918·PAYLOAD·🇺🇸 United States

Lancé Sep 24, 2023 depuis Cape Canaveral Space Force Station

Loading…

Prochains Passages (prochaines 24 heures)

TLE

FraisSource: CelesTrak SupGP

Époque: Sep 15, 2026, 03:19 UTC

1 57918C 23147F   26258.13868056  .00023962  00000+0  86782-3 0  2580
2 57918  43.0020 190.3147 0001155 271.6950 158.8888 15.27569317    11

Suivez STARLINK-30499 en temps réel avec AllMySat

Download on the App Store